Terminal Aerodrome Forecast
Issued by NWS Tiyan, Guam

Home | Current Version | Previous Version | Text Only | Print | Product List | Glossary On
Versions: 1 2 3 4 5 6 7 8 9 10 11 12 13 14
000
FTPQ31 PGUM 292320
TAFGUM
TAF
PGUM 292320Z 3000/3106 11007KT P6SM VCSH SCT020 SCT050
      TEMPO 3003/3005 -SHRA SCT014 BKN030
     FM300800 VRB05KT P6SM VCSH SCT020 SCT120=

USA.gov is the U.S. government's official web portal to all federal, state and local government web resources and services.